This is the latest recevied weather packets stored in our database for station/object W4MSI. If no packets are shown the sender has not sent any weather packets the latest 10 day(s).
| Time | Temp. | Humidity | Pressure | Rain* | Wind** | Luminosity | Snow |
|---|---|---|---|---|---|---|---|
| 1777995084 | 18.33° C | 71% | 1010.8 hPa | 0 mm | - | 73 W/m² | - |
| 1777994780 | 18.33° C | 70% | 1010.8 hPa | 0 mm | - | 65 W/m² | - |
| 1777994476 | 18.33° C | 71% | 1010.9 hPa | 0 mm | - | 67 W/m² | - |
| 1777994171 | 18.33° C | 71% | 1010.9 hPa | 0 mm | - | 89 W/m² | - |
| 1777993869 | 18.33° C | 70% | 1010.8 hPa | 0 mm | - | 95 W/m² | - |
| 1777993565 | 18.33° C | 70% | 1010.6 hPa | 0 mm | - | 110 W/m² | - |
| 1777993262 | 18.33° C | 70% | 1010.7 hPa | 0 mm | - | 139 W/m² | - |
| 1777992958 | 18.33° C | 70% | 1010.8 hPa | 0 mm | - | 105 W/m² | - |
| 1777992656 | 18.33° C | 69% | 1010.7 hPa | 0 mm | - | 136 W/m² | - |
| 1777992354 | 17.78° C | 70% | 1010.7 hPa | 0 mm | - | 139 W/m² | - |
| 1777992051 | 18.33° C | 70% | 1010.6 hPa | 0 mm | - | 101 W/m² | - |
| 1777991748 | 18.33° C | 69% | 1010.5 hPa | 0 mm | - | 119 W/m² | - |
| 1777991445 | 18.33° C | 69% | 1010.4 hPa | 0 mm | - | 170 W/m² | - |
| 1777991143 | 18.33° C | 68% | 1010.5 hPa | 0 mm | - | 185 W/m² | - |
| 1777990840 | 17.78° C | 68% | 1010.2 hPa | 0 mm | - | 219 W/m² | - |
| 1777990537 | 17.78° C | 69% | 1010.3 hPa | 0 mm | - | 222 W/m² | - |
| 1777989931 | 17.78° C | 69% | 1010.3 hPa | 0 mm | - | 195 W/m² | - |
| 1777989627 | 17.78° C | 69% | 1010.3 hPa | 0 mm | - | 190 W/m² | - |
| 1777989324 | 17.22° C | 70% | 1010.2 hPa | 0 mm | - | 149 W/m² | - |
| 1777989020 | 17.22° C | 71% | 1010.3 hPa | 0 mm | - | 126 W/m² | - |
| 1777988716 | 17.22° C | 71% | 1010.2 hPa | 0 mm | - | 135 W/m² | - |
| 1777988414 | 17.22° C | 71% | 1010.5 hPa | 0 mm | - | 145 W/m² | - |
| 1777988110 | 17.22° C | 71% | 1010.4 hPa | 0 mm | - | 126 W/m² | - |
| 1777987806 | 16.67° C | 72% | 1010.2 hPa | 0 mm | - | 148 W/m² | - |
| 1777987503 | 16.67° C | 71% | 1010.5 hPa | 0 mm | - | 143 W/m² | - |
* Rain latest hour (hover to see other rain measurements)
** Current wind speed in m/s (hover to see current wind gust speed)